map of BIK home
Great Circle Mapper logo
BIK - Airport
Location
City:  Biak, Papua, Indonesia
Name:Frans Kaisiepo
ICAO:WABB
IATA:BIK

Details
Type:Airport (Aerodrome, Airfield)
Use:Public/Civil
Latitude:111'24"S (-1.190016)
Longitude:13606'29"E (136.107997)
Datum:WGS 1984
Elevation:46 ft (14 m)
Variation:2.22E (WMM2015 magnetic declination)
-0.09 annual change
Runways:1
Longest:11715 × 150 ft (3571 × 45.5 m), paved

Time
Time Zone:UTC+9
Local Time:

Weather
TAF:WABB 300500Z 3006/0112 22008KT 9999 SCT018
TEMPO 3014/3018 8000 RA FEW017CB
BECMG 3022/3024 18006KT
TEMPO 0102/0106 5000 RA FEW017CB
BECMG 0108/0110 24006KT 9999

Related Locations
Nearby:
Farthest:CTP: 12215 mi / 19658 km
Carutapera [Aeropuerto Carutapera], MA, BR

Find:

   beyond  
but within

Other Information
Maps:
NOTAMs:
Links:
Sources:

  
flag of Indonesia   

Sectional Chart

Flight Planning
at skyvector.com

Satellite Image

Google Maps Satellite view

 

Copyright © 2004-2016 Karl L. Swartz. All rights reserved.
The Great Circle Mapper name and logo are trademarks of the Great Circle Mapper.
All other trademarks mentioned herein belong to their respective owners.
Please see credits for attibutions and further copyright information.

  Follow gcmap on Facebook Follow gcmap on Twitter Follow gcmap on Google+ GCmap on LinkedIn

hCard Microformat

Geo Microformat